Tanger, Morocco

3:25 PM WEST on April 24, 2017 (GMT +0100)
Ibn Batouta

Weather History for GMTT - September, 2013

Change the Weather History Date:

Thursday, September 12, 2013

  Actual Average Record
Temperature  
Mean Temperature 80 °F -  
Max Temperature 86 °F 77 °F 89 °F (2003)
Min Temperature 75 °F 61 °F 59 °F (2002)
Cooling Degree Days 16    
Growing Degree Days 30 (Base 50)    
Moisture  
Dew Point 64 °F    
Average Humidity 58    
Maximum Humidity 69    
Minimum Humidity 37    
Precipitation  
Precipitation 0.00 in 0.05 in - ()
Sea Level Pressure  
Sea Level Pressure 29.98 in    
Wind  
Wind Speed 14 mph ()    
Max Wind Speed 25 mph    
Max Gust Speed 37 mph    
Visibility 5.7 miles    
Events      
Averages and records for this station are not official NWS values.
T = Trace of Precipitation, MM = Missing Value Source: Averaged Metar Reports

Daily Weather History Graph

Daily Weather History Graph

Search for Another Location

Airport or City:

Trip Planner

Search our weather history database for the weather conditions in past years. The results will help you decide how hot, cold, wet, or windy it might be!

Date:

Astronomy

Sep. 12, 2013 Rise Set
Actual Time 7:03 AM WEST 7:35 PM WEST
Civil Twilight 6:38 AM WEST 8:00 PM WEST
Nautical Twilight 6:08 AM WEST 8:30 PM WEST
Astronomical Twilight 5:37 AM WEST 9:01 PM WEST
Moon 2:05 PM WEST (9/12) No Moon Set
Length of Visible Light 13h 22m
Length of Day
12h 31m
Waxing Crescent, 47% of the Moon is Illuminated
Sep 12
Waxing Crescent
Sep 12
First Quarter
Sep 19
Full
Sep 27
Last Quarter
Oct 5
New

Hourly Weather History & Observations

Time (WEST) Temp. Heat Index Dew Point Humidity Pressure Visibility Wind Dir Wind Speed Gust Speed Precip Events Conditions
12:00 AM 77.0 °F - 64.4 °F 65% 29.95 in 5.0 mi East 13.8 mph - N/A   Scattered Clouds
12:07 AM 77.0 °F - 64.4 °F 65% 29.95 in 5.0 mi East 15.0 mph - N/A   Scattered Clouds
12:30 AM 77.0 °F - 64.4 °F 65% 29.95 in 5.0 mi East 13.8 mph - N/A   Scattered Clouds
1:00 AM 76 °F - 65 °F 61% 29.97 in 5 mi East 15.0 mph - -   Partly Cloudy
1:00 AM 75.2 °F - 64.4 °F 69% 29.95 in 5.0 mi East 16.1 mph - N/A   Scattered Clouds
1:30 AM 75.2 °F - 64.4 °F 69% 29.95 in 5.0 mi East 5.8 mph - N/A   Scattered Clouds
2:00 AM 75.2 °F - 64.4 °F 69% 29.95 in 5.0 mi East 5.8 mph - N/A   Scattered Clouds
2:30 AM 75.2 °F - 64.4 °F 69% 29.95 in 5.0 mi East 5.8 mph - N/A   Scattered Clouds
3:00 AM 75.2 °F - 64.4 °F 69% 29.95 in 5.0 mi East 5.8 mph - N/A   Scattered Clouds
3:30 AM 75.2 °F - 64.4 °F 69% 29.95 in 5.0 mi East 5.8 mph - N/A   Scattered Clouds
4:00 AM 75 °F - 64 °F 61% 29.96 in - ESE 13.8 mph - -  
4:00 AM 75.2 °F - 64.4 °F 69% 29.95 in 5.0 mi East 5.8 mph - N/A   Scattered Clouds
4:30 AM 75.2 °F - 64.4 °F 69% 29.95 in 5.0 mi ESE 6.9 mph - N/A   Scattered Clouds
5:00 AM 75.2 °F - 64.4 °F 69% 29.95 in 5.0 mi East 6.9 mph - N/A   Scattered Clouds
5:30 AM 75.2 °F - 64.4 °F 69% 29.95 in 5.0 mi East 6.9 mph - N/A   Scattered Clouds
6:00 AM 75.2 °F - 64.4 °F 69% 29.95 in 5.0 mi East 15.0 mph - N/A   Scattered Clouds
6:30 AM 75.2 °F - 64.4 °F 69% 29.95 in 5.0 mi East 13.8 mph - N/A   Scattered Clouds
7:00 AM 75 °F - 65 °F 63% 29.97 in 6 mi East 15.0 mph - -   Partly Cloudy
7:00 AM 75.2 °F - 64.4 °F 69% 29.95 in 6.2 mi East 13.8 mph - N/A   Scattered Clouds
7:30 AM 75.2 °F - 64.4 °F 69% 29.98 in 6.2 mi East 13.8 mph - N/A   Scattered Clouds
8:00 AM 75.2 °F - 64.4 °F 69% 29.98 in 6.2 mi ESE 13.8 mph - N/A   Scattered Clouds
8:30 AM 77.0 °F - 64.4 °F 65% 30.01 in 6.2 mi ESE 12.7 mph - N/A   Scattered Clouds
9:00 AM 78.8 °F - 64.4 °F 61% 30.01 in 6.2 mi East 13.8 mph - N/A   Scattered Clouds
9:30 AM 80.6 °F 82.3 °F 64.4 °F 58% 30.01 in 6.2 mi East 16.1 mph - N/A   Scattered Clouds
10:00 AM 81 °F - 64 °F 47% 30.02 in 6 mi East 17.3 mph - -   Partly Cloudy
10:00 AM 80.6 °F 82.3 °F 64.4 °F 58% 30.01 in 6.2 mi East 17.3 mph - N/A   Scattered Clouds
10:30 AM 82.4 °F 83.9 °F 64.4 °F 54% 30.01 in 6.2 mi East 18.4 mph - N/A   Scattered Clouds
11:00 AM 84.2 °F 85.0 °F 62.6 °F 48% 30.04 in 6.2 mi East 17.3 mph - N/A   Scattered Clouds
11:30 AM 84.2 °F 85.0 °F 62.6 °F 48% 30.04 in 6.2 mi East 18.4 mph - N/A   Scattered Clouds
12:00 PM 84.2 °F 85.6 °F 64.4 °F 51% 30.04 in 6.2 mi East 21.9 mph - N/A   Scattered Clouds
12:30 PM 84.2 °F 85.0 °F 62.6 °F 48% 30.01 in 6.2 mi East 20.7 mph - N/A   Scattered Clouds
1:00 PM 85 °F - 62 °F 37% 30.02 in 6 mi East 21.9 mph - -   Partly Cloudy
1:00 PM 84.2 °F 85.0 °F 62.6 °F 48% 30.01 in 6.2 mi East 21.9 mph - N/A   Scattered Clouds
1:30 PM 86.0 °F 86.6 °F 62.6 °F 45% 30.01 in 6.2 mi East 20.7 mph - N/A   Scattered Clouds
2:00 PM 86.0 °F 86.6 °F 62.6 °F 45% 29.98 in 6.2 mi East 21.9 mph - N/A   Scattered Clouds
2:30 PM 86.0 °F 86.6 °F 62.6 °F 45% 29.98 in 6.2 mi East 21.9 mph - N/A   Scattered Clouds
3:00 PM 86.0 °F 86.6 °F 62.6 °F 45% 29.98 in 6.2 mi East 21.9 mph - N/A   Scattered Clouds
3:30 PM 86.0 °F 86.6 °F 62.6 °F 45% 29.98 in 6.2 mi East 19.6 mph - N/A   Partly Cloudy
4:00 PM 85 °F - 63 °F 37% 29.98 in 6 mi East 19.6 mph - -   Scattered Clouds
4:00 PM 86.0 °F 86.6 °F 62.6 °F 45% 29.98 in 6.2 mi East 19.6 mph - N/A   Partly Cloudy
4:30 PM 84.2 °F 85.6 °F 64.4 °F 51% 29.95 in 6.2 mi East 20.7 mph - N/A   Partly Cloudy
5:00 PM 84.2 °F 85.6 °F 64.4 °F 51% 29.95 in 6.2 mi East 23.0 mph - N/A   Partly Cloudy
5:30 PM 82.4 °F 83.4 °F 62.6 °F 51% 29.95 in 6.2 mi East 24.2 mph 36.8 mph N/A   Partly Cloudy
6:00 PM 82.4 °F 83.4 °F 62.6 °F 51% 29.95 in 6.2 mi East 25.3 mph - N/A   Partly Cloudy
6:30 PM 80.6 °F 81.8 °F 62.6 °F 54% 29.95 in 6.2 mi East 23.0 mph - N/A   Partly Cloudy
7:00 PM 80 °F - 64 °F 48% 29.96 in 6 mi East 19.6 mph - -   Scattered Clouds
7:00 PM 78.8 °F - 64.4 °F 61% 29.95 in 6.2 mi East 19.6 mph - N/A   Partly Cloudy
7:30 PM 77.0 °F - 62.6 °F 61% 29.95 in 6.2 mi East 19.6 mph 32.2 mph N/A   Partly Cloudy
8:00 PM 77.0 °F - 62.6 °F 61% 29.95 in 6.2 mi East 21.9 mph 33.4 mph N/A   Scattered Clouds
8:30 PM 77.0 °F - 62.6 °F 61% 29.95 in 6.2 mi East 23.0 mph - N/A   Scattered Clouds
9:00 PM 77.0 °F - 64.4 °F 65% 29.98 in 6.2 mi East 19.6 mph 31.1 mph N/A   Scattered Clouds
9:30 PM 77.0 °F - 64.4 °F 65% 29.98 in 5.0 mi East 17.3 mph - N/A   Scattered Clouds
10:00 PM 76 °F - 63 °F 55% 30.01 in 5 mi East 16.1 mph - -   Partly Cloudy
10:00 PM 77.0 °F - 62.6 °F 61% 30.01 in 5.0 mi East 16.1 mph 28.8 mph N/A   Scattered Clouds
10:30 PM 77.0 °F - 62.6 °F 61% 30.01 in 5.0 mi East 13.8 mph 25.3 mph N/A   Scattered Clouds
11:00 PM 77.0 °F - 62.6 °F 61% 30.01 in 5.0 mi East 16.1 mph - N/A   Scattered Clouds
11:30 PM 77.0 °F - 62.6 °F 61% 30.01 in 5.0 mi East 12.7 mph - N/A   Scattered Clouds